Location: Baller�as
(41.9020°N, 0.1554°W)
Time: 09:47:05
(UTC+00:00)

Cosmos 1980 Rocket - Pass Details

Date: 10 August 2020
Orbit: 829 x 849 km, 71.0° (Epoch: 22 September)

Event Time Altitude Azimuth Distance (km) Brightness Sun altitude
Rises 20:05:19 0° 343° (NNW) 3,418 6.2 -10.5°
Reaches altitude 10° 20:08:02 10° 353° (N) 2,476 5.2 -10.9°
Maximum altitude 20:13:07 33° 56° (NE) 1,400 3.2 -11.7°
Enters shadow 20:16:52 16° 111° (ESE) 2,057 3.6 -12.3°
